Regional Weather Roundup
Issued by NWS

Home | Current Version | Previous Version | Graphics & Text | Print | Product List | Glossary On
Versions: 1 2 3 4 5 6 7 8 9 10 11 12 13 14 15 16 17 18 19 20 21 22 23 24 25 26 27 28 29 30 31 32 33 34 35 36 37 38 39 40 41 42 43 44 45 46 47 48 49 50
000
ASUS43 KLOT 230509
RWRIL

ILLINOIS REGIONAL WEATHER ROUNDUP
NATIONAL WEATHER SERVICE CHICAGO/ROMEOVILLE IL
1200 AM CDT FRI JUN 23 2017

NOTE: "FAIR" INDICATES FEW OR NO CLOUDS BELOW 12,000 FEET WITH NO
SIGNIFICANT WEATHER AND/OR OBSTRUCTIONS TO VISIBILITY.

* THESE STATIONS ARE NOT UNDER NWS QUALITY CONTROL. THEY ALSO MAY NOT
  REPORT WEATHER SUCH AS PRECIPITATION OR FOG.

ILZ001-002-007-009-015-016-024-230600-
NORTHWEST ILLINOIS

CITY           SKY/WX    TMP DP  RH WIND       PRES   REMARKS
MOLINE         CLOUDY    76  71  85 CALM      29.69F
STERLING*      PTCLDY    76  72  87 VRB3      29.70F
SAVANNA*       MOCLDY    75  72  88 S8        29.67F
$$

ILZ003-004-008-010-011-017-018-230600-
NORTH CENTRAL ILLINOIS

CITY           SKY/WX    TMP DP  RH WIND       PRES   REMARKS
ROCKFORD       PTCLDY    77  70  79 S8        29.69F
FREEPORT*      CLEAR     74  70  88 S9        29.70F
ROCHELLE*      MOCLDY    75  73  92 S12       29.70F
DE KALB*       CLOUDY    74  72  92 S14G20    29.72F
PERU*          CLOUDY    74  71  88 S10       29.73S
$$

ILZ005-006-012>014-019>023-230600-
NORTHEAST ILLINOIS

CITY           SKY/WX    TMP DP  RH WIND       PRES   REMARKS
CHICAGO-OHARE  MOCLDY    78  69  73 S18       29.70F HX  80
CHICAGO-MIDWAY CLOUDY    77  70  79 S15G26    29.72F
AURORA         CLOUDY    76  72  87 S12       29.73S
LANSING*       CLOUDY    74  68  81 S12       29.74F
JOLIET*        CLOUDY    77  73  86 S7        29.74S
WAUKEGAN       CLOUDY    74  73  97 SW15      29.67F
DUPAGE AIRPORT CLOUDY    75  72  90 S13       29.72F
WHEELING       CLOUDY    77  72  84 S15G24    29.71F
MORRIS*        CLOUDY    76  71  85 SW14      29.73S
ROMEOVILLE*    CLOUDY    75  68  79 S15       29.73F
NORTHERLY ISL    N/A     76  68  76 S12         N/A
$$

LMZ740>746-230600-
SOUTHERN LAKE MICHIGAN

STATION/POSITION SKY/WX   TEMP    WIND        PRES    VSBY  WAVE
                          AIR SEA DIR/SP/G                  HT/PER
                          (F)     (DEG/KT/KT) (MB)    (MI)  (FT/S)
SOUTHERN BUOY              68 61  200/ 17/ 21 1004.2F         2/ 4
WILMETTE HARBOR            73 65  190/ 16/ 19   N/A           2/ 3
HARRISON CRIB              75     200/ 23/ 26   N/A
BURNHAM HARBOR             76                   N/A
CALUMET HARBOR             75     190/ 11/ 14 1006.5F
BURNS HARBOR               74     190/ 16/ 21 1007.8F
MICHIGAN CITY              74     180/ 10/ 12   N/A
MICHIGAN CITY 6N           72 68  200/ 12/ 16   N/A           1/ 2
ST. JOSEPH                 72 69  200/ 14/ 16 1006.4          2/ 3
$$

ILZ025>027-034>036-040-047-049-050-058-095>099-230600-
WEST-CENTRAL ILLINOIS

CITY           SKY/WX    TMP DP  RH WIND       PRES   REMARKS
QUINCY         MOCLDY    76  72  87 S5        29.71S
GALESBURG*     CLOUDY    75  72  90 SE5       29.73F
MACOMB*        CLOUDY    74  72  94 S5        29.75R
JACKSONVILLE*  CLEAR     75  73  91 S7        29.72F
PITTSFIELD*    CLEAR     75  73  92 S6        29.72F
$$

ILZ028>032-037-038-041>044-048-051>054-059>061-230600-
CENTRAL ILLINOIS

CITY           SKY/WX    TMP DP  RH WIND       PRES   REMARKS
PONTIAC        CLOUDY    75  74  98 S9        29.75S
BLOOMINGTON    CLOUDY    74  72  93 SW15      29.76S
DECATUR        CLOUDY    74  72  93 S14       29.75S
PEORIA         CLOUDY    76  74  93 S7        29.73F
LACON*         CLOUDY    75  73  93 S7        29.72F
LINCOLN*       CLOUDY    77  74  93 S9        29.74S
SPRINGFIELD    MOCLDY    77  75  93 S9        29.73F
TAYLORVILLE    CLOUDY    73  73  98 S10       29.75F
$$

ILZ033-039-045-046-055>057-062-063-230600-
EAST-CENTRAL ILLINOIS

CITY           SKY/WX    TMP DP  RH WIND       PRES   REMARKS
CHAMPAIGN      CLOUDY    74  71  91 S13       29.76F
RANTOUL*       CLOUDY    75  73  95 S6        29.76F
MATTOON        CLOUDY    74  73  97 S9        29.77S
PARIS*         CLOUDY    73  72  96 S9        29.79F
$$

ILZ079-100>102-230600-
SOUTHWEST ILLINOIS

CITY           SKY/WX    TMP DP  RH WIND       PRES   REMARKS
ALTON          MOCLDY    74  73  96 SE6       29.74F
BELLEVILLE     DRIZZLE   75  73  94 S5        29.75F
CAHOKIA*       CLOUDY    78  73  84 SE7       29.74S HX  81
SPARTA*        CLOUDY    76  74  94 SE7       29.76F
$$

ILZ064>066-069>071-074>076-080>082-084>086-088>090-092>094-230600-
SOUTH-CENTRAL ILLINOIS

CITY           SKY/WX    TMP DP  RH WIND       PRES   REMARKS
CARBONDALE     CLOUDY    76  76 100 S5        29.76F
CAIRO*         CLOUDY    77  74  91 S7        29.78S
EFFINGHAM*     CLOUDY    74  74  99 SE6       29.79F
MARION         MOCLDY    79  77  94 S8        29.77F HX  83
MT. VERNON     CLOUDY    75  74  96 SE3       29.77F
CENTRALIA*     CLOUDY    75  75  98 CALM      29.75F
SALEM*         CLOUDY    76  73  91 SE6       29.77F
METROPOLIS*    LGT RAIN  77  74  90 S5        29.79F
$$

ILZ067-068-072-073-078-083-087-091-230600-
SOUTHEAST ILLINOIS

CITY           SKY/WX    TMP DP  RH WIND       PRES   REMARKS
LAWRENCEVILLE  CLOUDY    74  73  97 S7        29.79F
FLORA*         CLOUDY   N/A N/A N/A SE6       29.78F
FAIRFIELD*     CLOUDY    75  75  98 SE3       29.76F
HARRISBURG*    MOCLDY    76  75  96 S5        29.78F
ROBINSON*      CLOUDY    73  72  96 S13       29.79F
CARMI*         MOCLDY    74  74  99 SE5       29.78F
$$

ABBREVIATIONS USED IN REMARKS
   TC - TEMPERATURE IN CELSIUS
  WCI - WIND CHILL INDEX
   HX - HEAT INDEX
  VSB - VISIBILITY
$$





USA.gov is the U.S. government's official web portal to all federal, state and local government web resources and services.